Location: Cuzcurrita-R�o Tir�n
(42.5415°N, 2.9642°W)
Time: 02:05:09
(UTC+00:00)

COSMOS 2455 - Pass Details

Date: 17 January 2021
Orbit: 901 x 908 km, 67.1° (Epoch: 08 March)

Event Time Altitude Azimuth Distance (km) Brightness Sun altitude
Rises 19:12:03 0° 215° (SW) 3,516 6.5 -22.7°
Reaches altitude 10° 19:14:33 10° 217° (SW) 2,580 5.8 -23.2°
Maximum altitude 19:20:32 71° 302° (WNW) 957 3.0 -24.3°
Enters shadow 19:23:31 31° 19° (NNE) 1,539 3.8 -24.8°
